Погода в Бельдяжках

Россия / Орловская область     52°37′32″N   35°42′23″E
темп.,
°C
ветер,
м/с
пор.,
м/с
влажн.,
%
обл.,
%
осадки,
мм/ч
давл.,
гПа
погр.,
м
12 мая, ср
ср1200:00+6в310890 0.0 1024233
03:00+5в35944 0.0 102598
06:00+5всв39925 0.0 1025216
09:00+11в577239 0.0 1024708
12:00+14всв4561100 0.0 10211528
15:00+12всв4670100 0.9 1020781
18:00+10всв248399 0.1 1016216
21:00+7вюв389555 0.1 1016174
13 мая, чт
чт1300:00+6в379629 0.0 1016131
03:00+6вюв4119558 0.0 1015266
06:00+8вюв5139219 0.2 1015560
09:00+11юв7108496 0.4 1014869
12:00+13ююв687214 0.8 10141296
15:00+14ю686531 1.4 10141479
18:00+14ю4675100 0.3 1014945
21:00+10ю22885 0.4 101514
14 мая, пт
пт1400:00+9юв3392100 0.0 101537
03:00+9юв3589100 0.0 101587
06:00+10вюв3693100 0.0 1014127
09:00+15вюв5883100 0.1 1013436
12:00+20юв797261 0.0 10121228
15:00+21ююв71074100 3.1 10101215
18:00+19ю71279100 2.6 1009411
21:00+16ююв51292100 4.9 1009316
15 мая, сб
сб1500:00+13ююв47945 0.1 1009131
03:00+12ю33930 0.1 100932
06:00+12ююз3894100 0.0 1010181
09:00+15юз57796 0.0 1010429
12:00+19ююз56645 0.0 10111149
15:00+20ююз676125 0.1 10111741
18:00+17юз5876100 0.4 1011524
21:00+13ююз3691100 0.8 1012112
16 мая, вс
вс1600:00+12ююз33935 0.0 101245
03:00+10юз36950 0.0 1013118
06:00+10юз36940 0.0 1014169
09:00+15зюз35750 0.0 1014486
12:00+19юз23615 0.0 10141107
15:00+20ю235857 0.0 10141373
18:00+20вюв1267100 0.0 10131002
21:00+15всв338027 0.0 101338